EHI
0 0 0 0 0 0 0 0 0 0 0 0 0 0 0 0 1 0 0 0 1 3 5 4 2 1 2 3 5 7 9 9 9 8 7 7 7 5 3 3 3 4 4 4 3 2 2 2 1
0 0 0 0 0 0 0 0 0 0 0 0 0 0 0 1 2 1 0 0 0 1 3 4 3 2 4 6 7 8 8 8 7 6 6 6 5 4 3 3 3 3 4 3 3 2 1 1 1
0 0 0 0 0 0 0 0 1 0 0 0 0 0 1 2 2 1 0 0 0 0 2 5 4 2 5 8 9 10 9 7 5 3 3 3 4 3 3 3 3 3 3 3 3 2 2 2 2
0 0 0 0 0 0 0 0 0 0 0 0 0 0 1 2 1 1 1 0 0 0 2 5 4 2 5 8 10 12 11 7 4 2 1 2 2 2 2 2 2 1 1 2 2 3 3 3 3
0 0 0 0 1 0 0 0 0 0 0 0 0 1 2 3 2 2 2 0 0 0 2 5 5 3 5 7 9 11 10 7 5 3 3 2 2 1 1 1 1 0 0 1 1 2 3 3 3
0 0 0 0 0 0 0 0 0 0 0 0 0 1 3 5 6 5 2 0 0 0 2 5 4 3 5 6 7 8 8 7 6 5 4 3 2 1 1 0 0 0 0 0 0 1 1 2 2
0 0 0 0 0 0 0 0 0 0 0 0 0 0 4 8 10 7 3 0 0 0 2 4 3 1 3 5 5 6 7 7 7 6 5 4 4 3 2 1 1 2 1 0 0 0 0 1 1
0 0 0 0 0 0 0 0 1 0 0 0 0 1 6 14 17 13 7 3 2 2 3 4 3 1 2 3 5 7 8 8 7 6 5 5 4 3 2 1 2 3 2 1 1 0 0 0 0
0 0 0 0 0 0 0 0 0 0 0 0 1 3 10 20 24 20 15 10 7 6 6 6 5 4 3 2 3 5 7 7 6 4 4 3 3 2 1 2 3 4 3 3 2 1 0 0 0
0 0 0 0 0 0 0 0 0 0 0 0 2 7 14 22 26 25 21 16 13 12 10 8 7 7 6 4 3 2 3 3 3 2 2 2 2 2 2 2 3 3 2 2 2 1 0 0 0
0 0 0 1 0 0 0 0 0 0 0 0 4 10 16 20 23 25 23 20 17 16 13 10 9 9 8 6 5 2 1 1 2 3 4 4 4 4 4 3 3 2 2 1 1 1 0 0 0
0 0 0 0 0 0 0 0 0 0 0 1 5 12 16 16 17 20 21 19 18 18 16 13 12 12 11 9 7 4 1 2 3 5 6 7 7 6 6 5 4 4 3 2 2 2 1 0 0
0 0 0 0 0 0 0 0 0 1 1 2 6 11 13 12 13 16 18 18 18 18 17 16 16 16 15 14 12 7 4 3 4 6 8 8 8 8 7 7 6 5 4 3 3 2 1 1 1
0 0 0 0 0 0 0 0 0 1 2 3 6 9 9 9 10 13 17 20 21 20 19 19 18 18 19 18 17 13 9 6 6 7 7 8 9 10 10 9 8 4 2 2 2 1 1 2 2
0 0 0 0 0 0 0 0 0 1 2 2 3 6 7 7 8 12 17 21 22 21 21 21 19 18 19 20 20 17 14 11 11 10 9 8 9 10 10 9 8 5 2 2 2 1 1 2 2
0 0 0 0 0 0 0 0 0 0 1 1 1 3 6 6 6 10 14 17 19 20 22 22 18 17 19 20 21 20 17 15 14 12 11 9 8 8 8 7 6 4 3 2 2 3 3 4 4
0 0 0 0 0 0 0 0 0 0 0 0 0 2 5 6 6 9 13 15 17 18 22 23 20 18 19 21 22 20 18 15 13 12 11 10 8 7 6 6 5 4 4 3 2 3 5 7 7
0 0 0 0 0 0 0 0 0 1 1 2 2 2 4 8 9 11 15 17 17 20 24 26 24 22 22 22 22 20 16 13 11 10 9 9 9 9 8 7 5 5 6 5 4 5 7 9 10
0 0 0 0 0 0 0 0 1 2 4 4 3 2 4 8 11 14 18 19 19 23 26 27 27 28 28 26 24 22 17 12 10 8 7 8 9 10 10 9 7 6 8 8 8 8 9 9 9
0 0 0 0 0 0 0 0 1 2 3 3 2 2 4 7 10 14 19 21 21 23 24 26 28 31 32 30 27 24 18 13 11 10 8 6 6 7 9 9 8 9 10 10 10 11 10 8 7
0 0 0 0 0 0 0 0 0 1 1 2 2 2 3 6 8 12 17 21 21 19 18 22 29 34 34 30 27 22 18 14 13 13 11 8 6 5 6 7 8 11 12 11 11 11 9 7 6
0 0 0 0 0 0 0 0 0 0 1 3 4 4 5 6 8 11 14 19 19 16 15 20 29 36 35 32 27 21 17 16 15 15 14 12 9 8 8 8 9 11 12 11 10 10 8 5 4
0 0 0 0 0 0 0 0 0 0 1 4 5 6 8 9 10 11 12 16 18 18 18 22 30 35 36 33 29 22 17 16 16 16 15 12 10 9 9 10 10 11 11 10 8 7 5 3 2
0 0 0 0 0 0 0 0 0 1 2 4 5 6 8 10 12 12 13 17 22 23 23 27 32 36 36 32 25 19 16 17 17 17 13 8 6 7 8 10 10 9 9 8 6 5 3 2 1
0 0 0 0 0 0 0 0 1 2 3 4 4 5 6 9 13 15 17 21 27 29 28 29 33 36 35 30 23 17 16 16 17 15 11 6 4 5 6 8 7 6 6 6 5 5 4 2 1
0 0 0 0 0 0 0 0 1 3 4 4 4 5 7 10 13 17 20 23 28 31 31 31 33 34 33 30 26 20 16 14 14 14 10 6 5 5 5 6 5 4 4 3 2 3 4 3 2
0 0 0 0 0 0 0 0 2 3 4 4 4 5 8 11 14 18 21 24 28 31 33 32 32 32 32 31 28 24 20 17 16 15 10 7 5 4 4 5 5 4 3 2 2 3 4 4 4
0 0 0 0 0 0 0 0 2 3 3 4 3 4 7 11 14 18 22 26 29 32 33 33 31 30 30 31 30 26 24 22 21 16 10 8 7 6 5 5 6 5 5 5 5 6 5 5 5
0 0 0 0 0 0 0 1 3 5 5 4 4 5 7 10 12 16 22 27 29 30 31 31 31 30 30 31 29 25 23 22 20 16 11 10 10 9 8 7 7 7 7 8 10 9 7 6 6
0 0 0 0 0 0 0 1 3 6 6 6 5 7 9 9 8 13 22 28 29 29 29 30 32 32 31 30 27 23 20 19 17 15 13 12 11 10 9 9 9 9 9 11 11 9 8 7 6
Wind_Speed
8 8 7 6 8 3 5 6 5 5 5 6 5 4 5 7 7 8 7 8 9 9 11 11 8 7 7 7 7 6 6 6 6 6 6 6 7 7 7 8 8 8 8 9 9 9 9 9 9
6 6 7 7 6 3 6 6 6 7 7 6 5 4 5 7 7 8 8 9 9 10 10 9 9 7 7 7 7 6 6 6 6 6 6 7 7 7 8 8 8 8 9 9 10 10 9 9 9
6 8 7 5 2 2 6 6 7 7 6 4 4 4 5 6 6 7 8 10 10 10 10 11 8 7 7 7 7 6 6 6 7 7 7 7 7 7 8 8 8 8 8 8 8 8 8 8 8
6 7 7 5 3 4 5 5 5 6 6 3 3 6 6 6 4 7 11 11 10 10 9 12 8 7 6 6 6 6 6 6 7 7 7 7 7 7 8 8 8 8 8 7 7 7 7 7 7
7 6 6 4 4 5 4 4 4 4 4 4 3 6 8 6 8 11 12 11 10 9 9 11 9 7 6 6 6 6 6 6 7 7 7 7 7 7 7 7 8 8 8 7 7 6 6 6 7
6 6 6 5 6 5 5 3 3 4 5 5 4 6 7 8 10 11 11 10 9 9 9 10 10 7 6 6 6 6 6 6 7 7 7 7 7 7 7 7 7 7 7 7 7 7 6 7 7
7 5 5 4 5 5 4 3 2 3 4 4 3 5 8 9 10 11 10 9 9 8 8 8 8 8 8 7 6 6 6 6 7 7 6 6 6 6 7 7 7 7 7 7 7 6 6 6 7
6 5 6 5 6 5 5 3 2 1 4 4 2 3 8 12 11 10 10 9 8 8 7 6 6 6 6 7 8 6 6 6 6 6 6 6 6 6 6 7 7 7 6 6 6 6 6 6 6
6 8 6 5 5 5 4 3 3 2 4 4 2 4 9 15 13 11 10 9 8 7 6 6 6 6 5 6 8 7 7 6 5 6 5 5 4 5 6 7 7 6 6 6 6 6 6 5 6
7 7 3 1 1 3 4 4 3 5 6 5 6 8 13 15 14 13 11 11 10 8 7 6 6 5 5 4 5 4 4 5 3 3 4 2 3 3 4 8 6 6 6 6 6 5 6 5 4
6 5 1 2 1 2 3 4 4 5 5 5 6 11 14 15 14 13 11 10 9 9 7 6 6 5 4 3 3 2 2 3 3 3 2 2 2 3 3 3 5 5 5 4 5 5 3 2 2
6 3 3 2 2 3 4 4 4 5 2 1 5 10 15 15 14 13 11 10 9 9 8 7 6 5 4 3 3 2 2 2 2 3 2 2 1 2 2 1 2 2 2 2 2 2 3 3 2
7 5 4 4 5 4 4 5 4 4 1 3 7 11 14 14 13 12 10 9 9 9 8 7 6 5 4 3 2 2 2 2 3 2 2 1 2 2 2 2 1 1 2 2 2 2 2 2 3
4 5 5 5 6 5 6 5 5 4 4 6 9 11 12 12 13 12 11 9 9 9 8 7 7 6 5 4 3 2 2 2 2 2 2 1 1 2 2 2 1 1 1 1 1 2 2 2 2
5 7 7 7 7 6 7 8 7 4 5 7 8 9 10 11 11 11 11 10 9 9 8 8 8 7 6 5 4 3 2 2 1 2 3 2 1 2 1 2 2 1 2 2 1 2 2 2 2
9 10 10 7 7 6 9 9 6 6 6 7 7 8 9 10 11 11 10 9 9 8 9 8 7 8 7 5 4 3 2 2 2 2 2 2 2 2 2 1 2 2 2 2 2 2 2 2 2
10 10 9 7 7 6 10 7 5 6 7 7 7 8 9 9 10 10 10 10 9 9 8 9 8 8 7 7 5 4 3 2 2 2 2 2 2 2 2 1 1 2 1 1 1 2 2 2 2
7 8 8 8 6 8 10 7 5 7 7 7 7 8 8 9 9 10 10 9 8 8 8 8 8 7 7 6 5 4 3 3 2 2 2 2 2 2 2 2 2 2 1 1 1 2 1 1 1
6 8 8 6 4 8 10 8 6 7 8 8 7 8 8 8 9 9 9 9 9 8 8 8 7 7 6 5 5 5 4 3 3 3 3 3 2 2 2 1 2 1 1 1 2 2 3 2 1
9 10 9 6 4 7 8 8 7 7 8 7 7 7 8 8 9 9 10 9 9 8 8 8 8 7 7 5 4 3 3 3 3 2 3 3 3 3 2 2 2 2 2 2 2 2 1 2 1
11 11 8 6 5 8 9 10 9 8 8 7 7 7 7 8 9 10 10 9 9 8 8 7 7 7 7 5 4 4 3 3 3 3 3 3 4 4 3 2 2 2 2 2 2 2 2 1 1
10 8 8 9 9 8 9 9 10 9 9 9 8 8 8 9 9 10 10 9 9 9 8 8 7 7 7 6 5 5 3 3 3 3 3 3 4 4 3 3 3 2 2 2 3 2 2 2 2
8 5 8 10 11 11 10 11 7 9 10 9 9 9 8 9 9 10 10 10 9 9 8 7 7 7 7 6 6 5 4 3 2 2 3 3 4 4 4 4 3 3 2 2 2 2 2 2 2
6 7 8 10 11 13 11 11 8 8 9 8 8 8 8 8 9 9 9 9 9 9 8 8 8 7 7 7 7 6 5 4 3 3 3 3 3 3 4 3 3 3 2 3 3 3 3 2 2
10 10 8 10 10 10 7 10 6 4 5 6 6 6 7 7 8 9 9 9 9 9 8 8 8 8 8 8 7 7 7 6 5 4 4 3 3 3 4 4 3 3 2 3 3 3 3 3 3
12 13 9 8 8 7 8 9 4 3 3 4 4 4 5 6 6 7 9 9 9 9 8 8 9 8 8 8 7 7 7 5 5 5 3 4 3 3 3 4 4 3 3 3 3 3 3 3 3
11 12 11 10 10 9 7 5 5 5 5 5 5 5 5 6 6 6 7 8 9 9 8 8 8 8 8 8 7 7 7 5 5 4 4 3 3 3 4 4 4 3 3 3 4 3 3 3 3
9 8 8 10 9 10 9 9 6 8 7 6 6 5 5 5 5 5 5 6 7 8 8 8 8 8 8 8 7 6 7 6 5 4 4 4 4 3 4 4 4 4 4 4 4 3 3 3 2
9 10 9 9 9 9 8 4 2 4 5 5 5 4 4 4 4 5 4 5 6 7 7 8 8 8 8 7 7 6 6 6 5 5 5 4 4 4 5 4 4 4 3 3 3 4 3 3 3
9 10 10 10 9 10 9 2 4 3 3 3 3 3 3 3 3 4 4 5 5 6 6 7 7 8 8 7 7 6 5 5 5 5 4 4 4 4 4 4 4 4 4 4 4 4 4 4 4
Wind_Direction
200 202 220 234 234 206 89 82 77 85 77 68 70 58 56 43 25 65 92 116 122 126 123 132 128 125 123 123 120 117 112 110 111 113 114 116 116 117 114 110 110 106 102 103 110 116 121 122 121
203 206 229 239 249 150 99 86 83 68 86 103 98 84 78 71 57 93 117 123 133 127 128 124 124 125 122 120 116 115 109 107 106 108 111 114 119 119 113 111 110 107 104 104 106 108 113 117 117
208 232 255 244 253 68 91 91 89 93 113 123 100 70 54 70 93 110 118 137 137 129 125 117 127 123 121 117 114 112 108 105 103 102 104 108 115 119 117 116 115 112 109 108 110 112 115 120 123
229 223 235 240 133 71 74 96 114 126 126 117 117 100 86 70 100 115 131 142 137 130 125 120 128 121 116 114 113 111 108 106 105 102 100 103 109 115 119 120 119 118 116 114 114 118 123 127 129
240 248 225 192 132 96 90 107 151 139 120 119 130 104 98 91 107 126 140 143 139 131 125 124 126 122 120 118 112 110 108 104 102 101 99 98 103 112 121 121 121 122 123 121 119 120 121 122 129
235 239 224 181 137 122 107 123 153 134 122 128 138 121 99 115 128 136 142 144 136 132 129 126 133 133 130 125 116 109 104 104 104 103 103 99 100 107 117 121 124 125 125 124 121 118 118 122 128
258 246 233 181 147 142 107 126 153 134 132 129 139 122 119 136 136 142 143 143 137 137 132 133 141 145 145 135 121 111 104 102 102 102 105 106 107 110 114 117 123 128 126 126 125 125 122 125 135
271 250 215 191 172 135 119 139 111 141 109 109 160 145 136 143 145 147 147 146 142 141 137 139 144 142 150 140 128 121 112 106 108 109 107 111 124 127 129 133 127 131 133 131 127 127 128 127 131
247 240 211 191 178 138 140 162 133 126 131 135 113 69 112 139 149 153 152 153 149 147 146 147 143 146 152 139 133 142 136 126 143 136 133 162 144 134 142 110 120 125 129 129 126 125 132 140 139
233 235 197 118 130 148 174 188 169 177 166 155 137 118 129 148 159 163 163 163 161 160 158 153 149 150 147 134 140 152 150 141 154 126 146 149 116 107 105 108 118 124 130 135 137 148 167 189 154
228 241 164 175 185 214 203 199 201 210 200 183 167 152 154 163 169 171 171 170 165 161 161 159 157 153 147 142 142 138 139 134 142 128 135 118 132 126 125 130 139 146 162 153 151 173 162 148 124
225 232 254 240 222 228 224 212 214 229 245 146 164 161 165 173 177 178 176 172 166 165 168 164 159 156 156 137 139 150 149 143 139 127 158 135 125 124 113 119 118 134 131 134 153 145 137 137 145
223 223 236 244 236 237 237 228 230 224 177 153 158 166 174 180 180 178 176 172 170 171 171 168 164 156 151 148 163 148 147 146 132 134 138 141 142 127 123 109 93 128 121 141 143 126 126 144 151
224 237 237 229 226 216 224 219 218 204 177 167 171 177 181 184 181 177 177 177 177 173 173 168 171 161 162 161 166 150 154 145 149 144 130 153 122 113 133 137 130 110 97 87 113 118 123 137 130
227 230 226 218 221 216 224 214 213 187 179 181 181 182 184 186 184 183 181 182 178 174 172 173 173 168 171 169 171 162 158 154 155 136 140 155 150 128 158 149 160 134 127 124 127 126 134 141 134
214 225 226 200 209 206 231 223 179 169 185 188 186 184 186 185 188 185 182 182 176 173 172 177 177 173 174 174 177 165 155 153 157 156 151 160 158 169 193 161 152 142 161 148 139 153 142 132 139
210 223 226 195 200 210 231 233 167 176 194 194 189 185 185 183 187 183 183 181 179 176 174 178 180 179 179 175 176 176 162 170 169 167 170 169 179 181 195 150 120 174 175 159 165 133 147 138 132
214 226 220 218 191 219 231 234 197 190 201 199 192 187 184 186 185 179 180 178 177 176 176 177 177 180 182 177 176 183 180 181 182 173 169 180 185 187 204 175 165 200 174 148 134 133 141 141 148
254 247 235 223 203 229 231 233 217 194 205 201 195 192 187 185 178 176 177 176 175 172 174 178 179 177 183 181 188 186 188 192 189 182 174 185 183 180 199 196 157 214 168 159 161 160 151 145 144
239 242 236 215 196 244 238 235 218 202 210 210 202 195 189 180 174 176 179 180 179 176 175 178 181 178 185 182 188 193 201 197 189 186 170 187 180 183 194 188 186 186 166 165 164 172 168 136 167
232 242 243 235 220 229 239 226 207 197 208 209 208 203 194 189 183 181 183 185 181 180 183 182 181 179 183 178 180 181 183 193 185 186 180 187 186 181 194 188 197 193 203 174 180 184 197 191 178
233 233 250 243 236 221 221 240 195 195 203 206 208 205 201 193 190 186 185 184 185 183 181 181 180 179 178 181 185 183 189 197 194 188 173 178 189 187 184 188 186 199 206 181 206 183 214 234 217
244 238 244 247 246 249 223 247 211 194 212 210 209 210 206 196 191 188 189 186 186 182 179 176 176 176 177 184 184 194 202 200 190 181 170 183 174 184 184 184 187 193 201 196 203 181 227 239 254
225 222 227 236 241 239 232 243 233 203 214 210 205 204 205 196 187 185 185 181 180 179 178 176 174 176 177 183 189 197 200 194 187 184 181 190 177 176 174 178 188 204 202 199 205 210 217 250 264
216 224 218 215 218 230 216 236 236 204 214 220 209 201 199 191 183 184 184 181 180 181 182 179 178 177 179 183 191 196 199 192 190 195 191 203 191 177 174 186 191 203 207 211 214 214 232 231 235
217 231 240 243 237 223 203 232 209 183 207 221 214 206 197 189 187 190 189 184 182 182 184 183 181 180 181 186 191 195 197 197 192 193 199 194 205 187 171 184 192 203 208 211 210 222 221 223 233
221 231 249 263 262 252 220 211 195 189 206 206 200 194 191 184 185 196 192 184 184 185 185 185 179 177 182 187 188 189 190 194 193 188 199 195 197 189 178 184 189 197 206 214 212 218 228 224 234
246 235 230 242 249 246 226 224 219 189 193 193 195 191 187 181 181 188 189 188 186 184 184 183 180 179 180 182 186 181 184 189 190 195 190 195 194 190 184 186 189 195 199 205 211 208 208 222 233
208 217 231 244 253 257 248 224 149 187 191 191 191 183 183 184 184 184 184 184 183 184 183 181 181 180 178 180 180 179 179 181 185 194 194 192 192 188 192 190 193 198 198 198 206 218 207 219 229
235 231 226 237 238 248 265 235 102 150 177 182 179 173 166 179 185 179 174 170 171 176 178 175 178 179 175 172 167 166 167 172 183 188 191 189 191 197 195 195 196 200 198 201 211 218 215 221 228